owner,sensor,date,latitude,longitude,vertical_datum,sea_water_practical_salinity,qcFlag 
SCCF RECON,ioos:station:SCCF:53:1,2008-07-01T00:00:00Z,26.6493,-81.8810,2.11,20.0,1111122 
SCCF RECON,ioos:station:SCCF:53:1,2008-07-01T01:00:00Z,26.6493,-81.8810,2.07,20.61,1111122 
SCCF RECON,ioos:station:SCCF:53:1,2008-07-01T02:00:00Z,26.6493,-81.8810,2.039,20.57,1111122 
SCCF RECON,ioos:station:SCCF:53:1,2008-07-01T03:00:00Z,26.6493,-81.8810,2.01,19.73,1111122 
SCCF RECON,ioos:station:SCCF:53:1,2008-07-01T04:00:00Z,26.6493,-81.8810,2.019,20.05,1111122 
SCCF RECON,ioos:station:SCCF:53:1,2008-07-01T05:00:00Z,26.6493,-81.8810,2.05,20.22,1111122 
SCCF RECON,ioos:station:SCCF:53:1,2008-07-01T06:00:00Z,26.6493,-81.8810,2.085,19.9,1111122 
SCCF RECON,ioos:station:SCCF:53:1,2008-07-01T07:00:00Z,26.6493,-81.8810,2.12,20.96,1111122 
SCCF RECON,ioos:station:SCCF:53:1,2008-07-01T08:00:00Z,26.6493,-81.8810,2.15,20.55,1111122 
SCCF RECON,ioos:station:SCCF:53:1,2008-07-01T09:00:00Z,26.6493,-81.8810,2.15,20.89,1111122 
SCCF RECON,ioos:station:SCCF:53:1,2008-07-01T10:00:00Z,26.6493,-81.8810,2.122,20.57,1111122 
SCCF RECON,ioos:station:SCCF:53:1,2008-07-01T11:00:00Z,26.6493,-81.8810,2.1,20.62,1111122 
SCCF RECON,ioos:station:SCCF:53:1,2008-07-01T12:00:00Z,26.6493,-81.8810,2.1,20.49,1111122 
SCCF RECON,ioos:station:SCCF:53:1,2008-07-01T13:00:00Z,26.6493,-81.8810,2.16,20.74,1111122 
SCCF RECON,ioos:station:SCCF:53:1,2008-07-01T14:00:00Z,26.6493,-81.8810,2.22,20.82,1111122 
SCCF RECON,ioos:station:SCCF:53:1,2008-07-01T15:00:00Z,26.6493,-81.8810,2.28,20.71,1111122 
SCCF RECON,ioos:station:SCCF:53:1,2008-07-01T16:00:00Z,26.6493,-81.8810,2.35,20.55,1111122 
SCCF RECON,ioos:station:SCCF:53:1,2008-07-01T17:00:00Z,26.6493,-81.8810,2.41,20.68,1111122 
SCCF RECON,ioos:station:SCCF:53:1,2008-07-01T18:00:00Z,26.6493,-81.8810,2.45,21.14,1111122 
SCCF RECON,ioos:station:SCCF:53:1,2008-07-01T19:00:00Z,26.6493,-81.8810,2.458,21.19,1111122 
SCCF RECON,ioos:station:SCCF:53:1,2008-07-01T20:00:00Z,26.6493,-81.8810,2.41,20.94,1111122 
SCCF RECON,ioos:station:SCCF:53:1,2008-07-01T21:00:00Z,26.6493,-81.8810,2.35,20.26,1111122 
SCCF RECON,ioos:station:SCCF:53:1,2008-07-01T22:00:00Z,26.6493,-81.8810,2.302,19.2,1111122 
SCCF RECON,ioos:station:SCCF:53:1,2008-07-01T23:00:00Z,26.6493,-81.8810,2.241,18.63,1111122 
SCCF RECON,ioos:station:SCCF:53:1,2008-07-02T00:00:00Z,26.6493,-81.8810,2.181,18.08,1111122 
SCCF RECON,ioos:station:SCCF:53:1,2008-07-02T01:00:00Z,26.6493,-81.8810,2.12,17.69,1111122 
SCCF RECON,ioos:station:SCCF:53:1,2008-07-02T02:00:00Z,26.6493,-81.8810,2.07,18.11,1111122 
SCCF RECON,ioos:station:SCCF:53:1,2008-07-02T03:00:00Z,26.6493,-81.8810,2.02,18.8,1111122 
SCCF RECON,ioos:station:SCCF:53:1,2008-07-02T04:00:00Z,26.6493,-81.8810,2.0,18.66,1111122 
SCCF RECON,ioos:station:SCCF:53:1,2008-07-02T05:00:00Z,26.6493,-81.8810,2.0,18.92,1111122 
SCCF RECON,ioos:station:SCCF:53:1,2008-07-02T06:00:00Z,26.6493,-81.8810,2.04,18.87,1111122 
SCCF RECON,ioos:station:SCCF:53:1,2008-07-02T07:00:00Z,26.6493,-81.8810,2.08,19.13,1111122 
SCCF RECON,ioos:station:SCCF:53:1,2008-07-02T08:00:00Z,26.6493,-81.8810,2.11,19.09,1111122 
SCCF RECON,ioos:station:SCCF:53:1,2008-07-02T09:00:00Z,26.6493,-81.8810,2.15,19.49,1111122 
SCCF RECON,ioos:station:SCCF:53:1,2008-07-02T10:00:00Z,26.6493,-81.8810,2.18,19.58,1111122 
SCCF RECON,ioos:station:SCCF:53:1,2008-07-02T11:00:00Z,26.6493,-81.8810,2.19,19.15,1111122 
SCCF RECON,ioos:station:SCCF:53:1,2008-07-02T12:00:00Z,26.6493,-81.8810,2.188,19.43,1111122 
SCCF RECON,ioos:station:SCCF:53:1,2008-07-02T13:00:00Z,26.6493,-81.8810,2.18,18.78,1111122 
SCCF RECON,ioos:station:SCCF:53:1,2008-07-02T14:00:00Z,26.6493,-81.8810,2.21,19.32,1111122 
SCCF RECON,ioos:station:SCCF:53:1,2008-07-02T15:00:00Z,26.6493,-81.8810,2.28,19.88,1111122 
SCCF RECON,ioos:station:SCCF:53:1,2008-07-02T16:00:00Z,26.6493,-81.8810,2.33,20.14,1111122 
SCCF RECON,ioos:station:SCCF:53:1,2008-07-02T17:00:00Z,26.6493,-81.8810,2.389,20.22,1111122 
SCCF RECON,ioos:station:SCCF:53:1,2008-07-02T18:00:00Z,26.6493,-81.8810,2.45,20.45,1111122 
SCCF RECON,ioos:station:SCCF:53:1,2008-07-02T19:00:00Z,26.6493,-81.8810,2.51,20.66,1111122 
SCCF RECON,ioos:station:SCCF:53:1,2008-07-02T20:00:00Z,26.6493,-81.8810,2.481,20.84,1111122 
SCCF RECON,ioos:station:SCCF:53:1,2008-07-02T21:00:00Z,26.6493,-81.8810,2.42,20.62,1111122 
SCCF RECON,ioos:station:SCCF:53:1,2008-07-02T22:00:00Z,26.6493,-81.8810,2.377,20.11,1111122 
SCCF RECON,ioos:station:SCCF:53:1,2008-07-02T23:00:00Z,26.6493,-81.8810,2.3,20.23,1111122 
SCCF RECON,ioos:station:SCCF:53:1,2008-07-03T00:00:00Z,26.6493,-81.8810,2.24,20.42,1111122 
SCCF RECON,ioos:station:SCCF:53:1,2008-07-03T01:00:00Z,26.6493,-81.8810,2.18,20.5,1111122 
SCCF RECON,ioos:station:SCCF:53:1,2008-07-03T02:00:00Z,26.6493,-81.8810,2.12,20.33,1111122 
SCCF RECON,ioos:station:SCCF:53:1,2008-07-03T03:00:00Z,26.6493,-81.8810,2.07,20.46,1111122 
SCCF RECON,ioos:station:SCCF:53:1,2008-07-03T04:00:00Z,26.6493,-81.8810,2.02,20.38,1111122 
SCCF RECON,ioos:station:SCCF:53:1,2008-07-03T05:00:00Z,26.6493,-81.8810,1.99,20.5,1111122 
SCCF RECON,ioos:station:SCCF:53:1,2008-07-03T06:00:00Z,26.6493,-81.8810,1.99,20.86,1111122 
SCCF RECON,ioos:station:SCCF:53:1,2008-07-03T07:00:00Z,26.6493,-81.8810,2.04,20.5,1111122 
SCCF RECON,ioos:station:SCCF:53:1,2008-07-03T08:00:00Z,26.6493,-81.8810,2.079,20.06,1111122 
SCCF RECON,ioos:station:SCCF:53:1,2008-07-03T09:00:00Z,26.6493,-81.8810,2.11,20.69,1111122 
SCCF RECON,ioos:station:SCCF:53:1,2008-07-03T10:00:00Z,26.6493,-81.8810,2.15,20.59,1111122 
SCCF RECON,ioos:station:SCCF:53:1,2008-07-03T11:00:00Z,26.6493,-81.8810,2.14,20.87,1111122 
SCCF RECON,ioos:station:SCCF:53:1,2008-07-03T12:00:00Z,26.6493,-81.8810,2.114,20.44,1111122 
SCCF RECON,ioos:station:SCCF:53:1,2008-07-03T13:00:00Z,26.6493,-81.8810,2.109,20.08,1111122 
SCCF RECON,ioos:station:SCCF:53:1,2008-07-03T14:00:00Z,26.6493,-81.8810,2.13,20.26,1111122 
SCCF RECON,ioos:station:SCCF:53:1,2008-07-03T15:00:00Z,26.6493,-81.8810,2.17,20.32,1111122 
SCCF RECON,ioos:station:SCCF:53:1,2008-07-03T16:00:00Z,26.6493,-81.8810,2.232,19.78,1111122 
SCCF RECON,ioos:station:SCCF:53:1,2008-07-03T17:00:00Z,26.6493,-81.8810,2.295,19.91,1111122 
SCCF RECON,ioos:station:SCCF:53:1,2008-07-03T18:00:00Z,26.6493,-81.8810,2.379,20.25,1111122 
SCCF RECON,ioos:station:SCCF:53:1,2008-07-03T19:00:00Z,26.6493,-81.8810,2.421,19.88,1111122 
SCCF RECON,ioos:station:SCCF:53:1,2008-07-03T20:00:00Z,26.6493,-81.8810,2.49,18.91,1111122 
SCCF RECON,ioos:station:SCCF:53:1,2008-07-03T21:00:00Z,26.6493,-81.8810,2.47,19.49,1111122 
SCCF RECON,ioos:station:SCCF:53:1,2008-07-03T22:00:00Z,26.6493,-81.8810,2.412,19.21,1111122 
SCCF RECON,ioos:station:SCCF:53:1,2008-07-03T23:00:00Z,26.6493,-81.8810,2.36,19.03,1111122 
SCCF RECON,ioos:station:SCCF:53:1,2008-07-04T00:00:00Z,26.6493,-81.8810,2.29,19.53,1111122 
SCCF RECON,ioos:station:SCCF:53:1,2008-07-04T01:00:00Z,26.6493,-81.8810,2.24,19.65,1111122 
SCCF RECON,ioos:station:SCCF:53:1,2008-07-04T02:00:00Z,26.6493,-81.8810,2.18,19.75,1111122 
SCCF RECON,ioos:station:SCCF:53:1,2008-07-04T03:00:00Z,26.6493,-81.8810,2.12,20.01,1111122 
SCCF RECON,ioos:station:SCCF:53:1,2008-07-04T04:00:00Z,26.6493,-81.8810,2.07,20.29,1111122 
SCCF RECON,ioos:station:SCCF:53:1,2008-07-04T05:00:00Z,26.6493,-81.8810,2.03,20.02,1111122 
SCCF RECON,ioos:station:SCCF:53:1,2008-07-04T06:00:00Z,26.6493,-81.8810,2.0,20.42,1111122 
SCCF RECON,ioos:station:SCCF:53:1,2008-07-04T07:00:00Z,26.6493,-81.8810,2.02,20.63,1111122 
SCCF RECON,ioos:station:SCCF:53:1,2008-07-04T08:00:00Z,26.6493,-81.8810,2.06,20.3,1111122 
SCCF RECON,ioos:station:SCCF:53:1,2008-07-04T09:00:00Z,26.6493,-81.8810,2.1,19.68,1111122 
SCCF RECON,ioos:station:SCCF:53:1,2008-07-04T10:00:00Z,26.6493,-81.8810,2.13,20.28,1111122 
SCCF RECON,ioos:station:SCCF:53:1,2008-07-04T11:00:00Z,26.6493,-81.8810,2.15,20.24,1111122 
SCCF RECON,ioos:station:SCCF:53:1,2008-07-04T12:00:00Z,26.6493,-81.8810,2.14,20.32,1111122 
SCCF RECON,ioos:station:SCCF:53:1,2008-07-04T13:00:00Z,26.6493,-81.8810,2.11,20.09,1111122 
SCCF RECON,ioos:station:SCCF:53:1,2008-07-04T14:00:00Z,26.6493,-81.8810,2.08,20.13,1111122 
SCCF RECON,ioos:station:SCCF:53:1,2008-07-04T15:00:00Z,26.6493,-81.8810,2.07,20.39,1111122 
SCCF RECON,ioos:station:SCCF:53:1,2008-07-04T16:00:00Z,26.6493,-81.8810,2.12,20.65,1111122 
SCCF RECON,ioos:station:SCCF:53:1,2008-07-04T17:00:00Z,26.6493,-81.8810,2.183,20.13,1111122 
SCCF RECON,ioos:station:SCCF:53:1,2008-07-04T18:00:00Z,26.6493,-81.8810,2.235,20.41,1111122 
SCCF RECON,ioos:station:SCCF:53:1,2008-07-04T19:00:00Z,26.6493,-81.8810,2.299,21.18,1111122 
SCCF RECON,ioos:station:SCCF:53:1,2008-07-04T20:00:00Z,26.6493,-81.8810,2.36,21.59,1111122 
SCCF RECON,ioos:station:SCCF:53:1,2008-07-04T21:00:00Z,26.6493,-81.8810,2.41,21.88,1111122 
SCCF RECON,ioos:station:SCCF:53:1,2008-07-04T22:00:00Z,26.6493,-81.8810,2.422,21.92,1111122 
SCCF RECON,ioos:station:SCCF:53:1,2008-07-04T23:00:00Z,26.6493,-81.8810,2.38,21.22,1111122 
SCCF RECON,ioos:station:SCCF:53:1,2008-07-05T00:00:00Z,26.6493,-81.8810,2.33,20.17,1111122 
SCCF RECON,ioos:station:SCCF:53:1,2008-07-05T01:00:00Z,26.6493,-81.8810,2.272,20.72,1111122 
SCCF RECON,ioos:station:SCCF:53:1,2008-07-05T02:00:00Z,26.6493,-81.8810,2.22,20.47,1111122 
SCCF RECON,ioos:station:SCCF:53:1,2008-07-05T03:00:00Z,26.6493,-81.8810,2.16,20.6,1111122 
SCCF RECON,ioos:station:SCCF:53:1,2008-07-05T04:00:00Z,26.6493,-81.8810,2.108,20.45,1111122 
SCCF RECON,ioos:station:SCCF:53:1,2008-07-05T05:00:00Z,26.6493,-81.8810,2.056,20.62,1111122 
SCCF RECON,ioos:station:SCCF:53:1,2008-07-05T06:00:00Z,26.6493,-81.8810,2.03,20.78,1111122 
SCCF RECON,ioos:station:SCCF:53:1,2008-07-05T07:00:00Z,26.6493,-81.8810,2.03,20.88,1111122 
SCCF RECON,ioos:station:SCCF:53:1,2008-07-05T08:00:00Z,26.6493,-81.8810,2.08,20.52,1111122 
SCCF RECON,ioos:station:SCCF:53:1,2008-07-05T09:00:00Z,26.6493,-81.8810,2.12,19.82,1111122 
SCCF RECON,ioos:station:SCCF:53:1,2008-07-05T10:00:00Z,26.6493,-81.8810,2.16,20.59,1111122 
SCCF RECON,ioos:station:SCCF:53:1,2008-07-05T11:00:00Z,26.6493,-81.8810,2.21,20.99,1111122 
SCCF RECON,ioos:station:SCCF:53:1,2008-07-05T12:00:00Z,26.6493,-81.8810,2.21,20.67,1111122 
SCCF RECON,ioos:station:SCCF:53:1,2008-07-05T13:00:00Z,26.6493,-81.8810,2.187,20.42,1111122 
SCCF RECON,ioos:station:SCCF:53:1,2008-07-05T14:00:00Z,26.6493,-81.8810,2.15,20.11,1111122 
SCCF RECON,ioos:station:SCCF:53:1,2008-07-05T15:00:00Z,26.6493,-81.8810,2.118,20.02,1111122 
SCCF RECON,ioos:station:SCCF:53:1,2008-07-05T16:00:00Z,26.6493,-81.8810,2.106,20.3,1111122 
SCCF RECON,ioos:station:SCCF:53:1,2008-07-05T17:00:00Z,26.6493,-81.8810,2.141,20.36,1111122 
SCCF RECON,ioos:station:SCCF:53:1,2008-07-05T18:00:00Z,26.6493,-81.8810,2.2,20.17,1111122 
SCCF RECON,ioos:station:SCCF:53:1,2008-07-05T19:00:00Z,26.6493,-81.8810,2.259,19.56,1111122 
SCCF RECON,ioos:station:SCCF:53:1,2008-07-05T20:00:00Z,26.6493,-81.8810,2.323,20.2,1111122 
SCCF RECON,ioos:station:SCCF:53:1,2008-07-05T21:00:00Z,26.6493,-81.8810,2.393,20.21,1111122 
SCCF RECON,ioos:station:SCCF:53:1,2008-07-05T22:00:00Z,26.6493,-81.8810,2.432,20.09,1111122 
SCCF RECON,ioos:station:SCCF:53:1,2008-07-05T23:00:00Z,26.6493,-81.8810,2.43,20.02,1111122 
SCCF RECON,ioos:station:SCCF:53:1,2008-07-06T00:00:00Z,26.6493,-81.8810,2.391,19.62,1111122 
SCCF RECON,ioos:station:SCCF:53:1,2008-07-06T01:00:00Z,26.6493,-81.8810,2.33,18.98,1111122 
SCCF RECON,ioos:station:SCCF:53:1,2008-07-06T02:00:00Z,26.6493,-81.8810,2.27,18.5,1111122 
SCCF RECON,ioos:station:SCCF:53:1,2008-07-06T03:00:00Z,26.6493,-81.8810,2.21,18.57,1111122 
SCCF RECON,ioos:station:SCCF:53:1,2008-07-06T04:00:00Z,26.6493,-81.8810,2.16,18.6,1111122 
SCCF RECON,ioos:station:SCCF:53:1,2008-07-06T05:00:00Z,26.6493,-81.8810,2.11,18.56,1111122 
SCCF RECON,ioos:station:SCCF:53:1,2008-07-06T06:00:00Z,26.6493,-81.8810,2.05,18.96,1111122 
SCCF RECON,ioos:station:SCCF:53:1,2008-07-06T07:00:00Z,26.6493,-81.8810,2.058,19.15,1111122 
SCCF RECON,ioos:station:SCCF:53:1,2008-07-06T08:00:00Z,26.6493,-81.8810,2.091,18.98,1111122 
SCCF RECON,ioos:station:SCCF:53:1,2008-07-06T09:00:00Z,26.6493,-81.8810,2.14,18.91,1111122 
SCCF RECON,ioos:station:SCCF:53:1,2008-07-06T10:00:00Z,26.6493,-81.8810,2.2,18.83,1111122 
SCCF RECON,ioos:station:SCCF:53:1,2008-07-06T11:00:00Z,26.6493,-81.8810,2.24,18.88,1111122 
SCCF RECON,ioos:station:SCCF:53:1,2008-07-06T12:00:00Z,26.6493,-81.8810,2.26,19.46,1111122 
SCCF RECON,ioos:station:SCCF:53:1,2008-07-06T13:00:00Z,26.6493,-81.8810,2.24,19.35,1111122 
SCCF RECON,ioos:station:SCCF:53:1,2008-07-06T14:00:00Z,26.6493,-81.8810,2.21,19.15,1111122 
SCCF RECON,ioos:station:SCCF:53:1,2008-07-06T15:00:00Z,26.6493,-81.8810,2.169,18.78,1111122 
SCCF RECON,ioos:station:SCCF:53:1,2008-07-06T16:00:00Z,26.6493,-81.8810,2.131,19.05,1111122 
SCCF RECON,ioos:station:SCCF:53:1,2008-07-06T17:00:00Z,26.6493,-81.8810,2.112,19.02,1111122 
SCCF RECON,ioos:station:SCCF:53:1,2008-07-06T18:00:00Z,26.6493,-81.8810,2.15,19.02,1111122 
SCCF RECON,ioos:station:SCCF:53:1,2008-07-06T19:00:00Z,26.6493,-81.8810,2.2,18.82,1111122 
SCCF RECON,ioos:station:SCCF:53:1,2008-07-06T20:00:00Z,26.6493,-81.8810,2.287,18.32,1111122 
SCCF RECON,ioos:station:SCCF:53:1,2008-07-06T21:00:00Z,26.6493,-81.8810,2.334,18.63,1111122 
SCCF RECON,ioos:station:SCCF:53:1,2008-07-06T22:00:00Z,26.6493,-81.8810,2.378,18.86,1111122 
SCCF RECON,ioos:station:SCCF:53:1,2008-07-06T23:00:00Z,26.6493,-81.8810,2.4,18.76,1111122 
SCCF RECON,ioos:station:SCCF:53:1,2008-07-07T00:00:00Z,26.6493,-81.8810,2.37,18.73,1111122 
SCCF RECON,ioos:station:SCCF:53:1,2008-07-07T01:00:00Z,26.6493,-81.8810,2.32,18.31,1111122 
SCCF RECON,ioos:station:SCCF:53:1,2008-07-07T02:00:00Z,26.6493,-81.8810,2.27,18.02,1111122 
SCCF RECON,ioos:station:SCCF:53:1,2008-07-07T03:00:00Z,26.6493,-81.8810,2.21,18.67,1111122 
SCCF RECON,ioos:station:SCCF:53:1,2008-07-07T04:00:00Z,26.6493,-81.8810,2.16,18.79,1111122 
SCCF RECON,ioos:station:SCCF:53:1,2008-07-07T05:00:00Z,26.6493,-81.8810,2.107,18.81,1111122 
SCCF RECON,ioos:station:SCCF:53:1,2008-07-07T06:00:00Z,26.6493,-81.8810,2.054,18.92,1111122 
SCCF RECON,ioos:station:SCCF:53:1,2008-07-07T07:00:00Z,26.6493,-81.8810,2.04,18.93,1111122 
SCCF RECON,ioos:station:SCCF:53:1,2008-07-07T08:00:00Z,26.6493,-81.8810,2.08,19.03,1111122 
SCCF RECON,ioos:station:SCCF:53:1,2008-07-07T09:00:00Z,26.6493,-81.8810,2.13,18.95,1111122 
SCCF RECON,ioos:station:SCCF:53:1,2008-07-07T10:00:00Z,26.6493,-81.8810,2.182,18.86,1111122 
SCCF RECON,ioos:station:SCCF:53:1,2008-07-07T11:00:00Z,26.6493,-81.8810,2.24,18.96,1111122 
SCCF RECON,ioos:station:SCCF:53:1,2008-07-07T12:00:00Z,26.6493,-81.8810,2.281,18.76,1111122 
SCCF RECON,ioos:station:SCCF:53:1,2008-07-07T13:00:00Z,26.6493,-81.8810,2.29,19.16,1111122 
SCCF RECON,ioos:station:SCCF:53:1,2008-07-07T14:00:00Z,26.6493,-81.8810,2.25,18.36,1111122 
SCCF RECON,ioos:station:SCCF:53:1,2008-07-07T15:00:00Z,26.6493,-81.8810,2.217,19.18,1111122 
SCCF RECON,ioos:station:SCCF:53:1,2008-07-07T16:00:00Z,26.6493,-81.8810,2.175,18.72,1111122 
SCCF RECON,ioos:station:SCCF:53:1,2008-07-07T17:00:00Z,26.6493,-81.8810,2.139,19.08,1111122 
SCCF RECON,ioos:station:SCCF:53:1,2008-07-07T18:00:00Z,26.6493,-81.8810,2.112,19.02,1111122 
SCCF RECON,ioos:station:SCCF:53:1,2008-07-07T19:00:00Z,26.6493,-81.8810,2.149,19.01,1111122 
SCCF RECON,ioos:station:SCCF:53:1,2008-07-07T20:00:00Z,26.6493,-81.8810,2.246,19.03,1111122 
SCCF RECON,ioos:station:SCCF:53:1,2008-07-07T21:00:00Z,26.6493,-81.8810,2.24,19.46,1111122 
SCCF RECON,ioos:station:SCCF:53:1,2008-07-07T22:00:00Z,26.6493,-81.8810,2.3,17.75,1111122 
SCCF RECON,ioos:station:SCCF:53:1,2008-07-07T23:00:00Z,26.6493,-81.8810,2.34,19.35,1111122 
SCCF RECON,ioos:station:SCCF:53:1,2008-07-08T00:00:00Z,26.6493,-81.8810,2.358,19.56,1111122 
SCCF RECON,ioos:station:SCCF:53:1,2008-07-08T01:00:00Z,26.6493,-81.8810,2.34,19.02,1111122 
SCCF RECON,ioos:station:SCCF:53:1,2008-07-08T02:00:00Z,26.6493,-81.8810,2.29,18.25,1111122 
SCCF RECON,ioos:station:SCCF:53:1,2008-07-08T03:00:00Z,26.6493,-81.8810,2.279,18.35,1111122 
SCCF RECON,ioos:station:SCCF:53:1,2008-07-08T04:00:00Z,26.6493,-81.8810,2.229,18.31,1111122 
SCCF RECON,ioos:station:SCCF:53:1,2008-07-08T05:00:00Z,26.6493,-81.8810,2.18,18.39,1111122 
SCCF RECON,ioos:station:SCCF:53:1,2008-07-08T06:00:00Z,26.6493,-81.8810,2.11,18.6,1111122 
SCCF RECON,ioos:station:SCCF:53:1,2008-07-08T07:00:00Z,26.6493,-81.8810,2.05,18.6,1111122 
SCCF RECON,ioos:station:SCCF:53:1,2008-07-08T08:00:00Z,26.6493,-81.8810,2.07,18.8,1111122 
SCCF RECON,ioos:station:SCCF:53:1,2008-07-08T09:00:00Z,26.6493,-81.8810,2.113,18.58,1111122 
SCCF RECON,ioos:station:SCCF:53:1,2008-07-08T10:00:00Z,26.6493,-81.8810,2.17,18.84,1111122 
SCCF RECON,ioos:station:SCCF:53:1,2008-07-08T11:00:00Z,26.6493,-81.8810,2.22,19.17,1111122 
SCCF RECON,ioos:station:SCCF:53:1,2008-07-08T12:00:00Z,26.6493,-81.8810,2.27,19.08,1111122 
SCCF RECON,ioos:station:SCCF:53:1,2008-07-08T13:00:00Z,26.6493,-81.8810,2.3,18.66,1111122 
SCCF RECON,ioos:station:SCCF:53:1,2008-07-08T14:00:00Z,26.6493,-81.8810,2.29,19.37,1111122 
SCCF RECON,ioos:station:SCCF:53:1,2008-07-08T15:00:00Z,26.6493,-81.8810,2.259,18.61,1111122 
SCCF RECON,ioos:station:SCCF:53:1,2008-07-08T16:00:00Z,26.6493,-81.8810,2.21,18.41,1111122 
SCCF RECON,ioos:station:SCCF:53:1,2008-07-08T17:00:00Z,26.6493,-81.8810,2.16,18.66,1111122 
SCCF RECON,ioos:station:SCCF:53:1,2008-07-08T18:00:00Z,26.6493,-81.8810,2.12,18.82,1111122 
SCCF RECON,ioos:station:SCCF:53:1,2008-07-08T19:00:00Z,26.6493,-81.8810,2.088,18.7,1111122 
SCCF RECON,ioos:station:SCCF:53:1,2008-07-08T20:00:00Z,26.6493,-81.8810,2.122,18.43,1111122 
SCCF RECON,ioos:station:SCCF:53:1,2008-07-08T21:00:00Z,26.6493,-81.8810,2.196,18.92,1111122 
SCCF RECON,ioos:station:SCCF:53:1,2008-07-08T22:00:00Z,26.6493,-81.8810,2.23,18.91,1111122 
SCCF RECON,ioos:station:SCCF:53:1,2008-07-08T23:00:00Z,26.6493,-81.8810,2.28,19.01,1111122 
SCCF RECON,ioos:station:SCCF:53:1,2008-07-09T00:00:00Z,26.6493,-81.8810,2.32,19.16,1111122 
SCCF RECON,ioos:station:SCCF:53:1,2008-07-09T01:00:00Z,26.6493,-81.8810,2.321,19.33,1111122 
SCCF RECON,ioos:station:SCCF:53:1,2008-07-09T02:00:00Z,26.6493,-81.8810,2.304,19.2,1111122 
SCCF RECON,ioos:station:SCCF:53:1,2008-07-09T03:00:00Z,26.6493,-81.8810,2.26,18.73,1111122 
SCCF RECON,ioos:station:SCCF:53:1,2008-07-09T04:00:00Z,26.6493,-81.8810,2.22,18.56,1111122 
SCCF RECON,ioos:station:SCCF:53:1,2008-07-09T05:00:00Z,26.6493,-81.8810,2.16,18.94,1111122 
SCCF RECON,ioos:station:SCCF:53:1,2008-07-09T06:00:00Z,26.6493,-81.8810,2.12,19.13,1111122 
SCCF RECON,ioos:station:SCCF:53:1,2008-07-09T07:00:00Z,26.6493,-81.8810,2.08,19.28,1111122 
SCCF RECON,ioos:station:SCCF:53:1,2008-07-09T08:00:00Z,26.6493,-81.8810,2.08,19.24,1111122 
SCCF RECON,ioos:station:SCCF:53:1,2008-07-09T09:00:00Z,26.6493,-81.8810,2.13,18.93,1111122 
SCCF RECON,ioos:station:SCCF:53:1,2008-07-09T10:00:00Z,26.6493,-81.8810,2.18,18.43,1111122 
SCCF RECON,ioos:station:SCCF:53:1,2008-07-09T11:00:00Z,26.6493,-81.8810,2.23,19.52,1111122 
SCCF RECON,ioos:station:SCCF:53:1,2008-07-09T12:00:00Z,26.6493,-81.8810,2.283,19.47,1111122 
SCCF RECON,ioos:station:SCCF:53:1,2008-07-09T13:00:00Z,26.6493,-81.8810,2.33,18.93,1111122 
SCCF RECON,ioos:station:SCCF:53:1,2008-07-09T14:00:00Z,26.6493,-81.8810,2.34,19.51,1111122 
SCCF RECON,ioos:station:SCCF:53:1,2008-07-09T15:00:00Z,26.6493,-81.8810,2.31,19.54,1111122 
SCCF RECON,ioos:station:SCCF:53:1,2008-07-09T16:00:00Z,26.6493,-81.8810,2.269,18.02,1111122 
SCCF RECON,ioos:station:SCCF:53:1,2008-07-09T17:00:00Z,26.6493,-81.8810,2.22,18.87,1111122 
SCCF RECON,ioos:station:SCCF:53:1,2008-07-09T18:00:00Z,26.6493,-81.8810,2.17,19.02,1111122 
SCCF RECON,ioos:station:SCCF:53:1,2008-07-09T19:00:00Z,26.6493,-81.8810,2.12,19.06,1111122 
SCCF RECON,ioos:station:SCCF:53:1,2008-07-09T20:00:00Z,26.6493,-81.8810,2.08,19.33,1111122 
SCCF RECON,ioos:station:SCCF:53:1,2008-07-09T21:00:00Z,26.6493,-81.8810,2.08,19.29,1111122 
SCCF RECON,ioos:station:SCCF:53:1,2008-07-09T22:00:00Z,26.6493,-81.8810,2.115,18.27,1111122 
SCCF RECON,ioos:station:SCCF:53:1,2008-07-09T23:00:00Z,26.6493,-81.8810,2.179,18.95,1111122 
SCCF RECON,ioos:station:SCCF:53:1,2008-07-10T00:00:00Z,26.6493,-81.8810,2.23,17.86,1111122 
SCCF RECON,ioos:station:SCCF:53:1,2008-07-10T01:00:00Z,26.6493,-81.8810,2.266,17.1,1111122 
SCCF RECON,ioos:station:SCCF:53:1,2008-07-10T02:00:00Z,26.6493,-81.8810,2.27,17.86,1111122 
SCCF RECON,ioos:station:SCCF:53:1,2008-07-10T03:00:00Z,26.6493,-81.8810,2.26,18.21,1111122 
SCCF RECON,ioos:station:SCCF:53:1,2008-07-10T04:00:00Z,26.6493,-81.8810,2.222,18.15,1111122 
SCCF RECON,ioos:station:SCCF:53:1,2008-07-10T05:00:00Z,26.6493,-81.8810,2.18,18.26,1111122 
SCCF RECON,ioos:station:SCCF:53:1,2008-07-10T06:00:00Z,26.6493,-81.8810,2.158,18.75,1111122 
SCCF RECON,ioos:station:SCCF:53:1,2008-07-10T07:00:00Z,26.6493,-81.8810,2.12,19.01,1111122 
SCCF RECON,ioos:station:SCCF:53:1,2008-07-10T08:00:00Z,26.6493,-81.8810,2.11,19.02,1111122 
SCCF RECON,ioos:station:SCCF:53:1,2008-07-10T09:00:00Z,26.6493,-81.8810,2.15,18.57,1111122 
SCCF RECON,ioos:station:SCCF:53:1,2008-07-10T10:00:00Z,26.6493,-81.8810,2.193,18.65,1111122 
SCCF RECON,ioos:station:SCCF:53:1,2008-07-10T11:00:00Z,26.6493,-81.8810,2.25,19.97,1111122 
SCCF RECON,ioos:station:SCCF:53:1,2008-07-10T12:00:00Z,26.6493,-81.8810,2.31,19.65,1111122 
SCCF RECON,ioos:station:SCCF:53:1,2008-07-10T13:00:00Z,26.6493,-81.8810,2.36,19.52,1111122 
SCCF RECON,ioos:station:SCCF:53:1,2008-07-10T14:00:00Z,26.6493,-81.8810,2.4,19.34,1111122 
SCCF RECON,ioos:station:SCCF:53:1,2008-07-10T15:00:00Z,26.6493,-81.8810,2.39,19.22,1111122 
SCCF RECON,ioos:station:SCCF:53:1,2008-07-10T16:00:00Z,26.6493,-81.8810,2.35,18.97,1111122 
SCCF RECON,ioos:station:SCCF:53:1,2008-07-10T17:00:00Z,26.6493,-81.8810,2.3,18.09,1111122 
SCCF RECON,ioos:station:SCCF:53:1,2008-07-10T18:00:00Z,26.6493,-81.8810,2.243,18.33,1111122 
SCCF RECON,ioos:station:SCCF:53:1,2008-07-10T19:00:00Z,26.6493,-81.8810,2.19,18.63,1111122 
SCCF RECON,ioos:station:SCCF:53:1,2008-07-10T20:00:00Z,26.6493,-81.8810,2.14,18.94,1111122 
SCCF RECON,ioos:station:SCCF:53:1,2008-07-10T21:00:00Z,26.6493,-81.8810,2.09,18.77,1111122 
SCCF RECON,ioos:station:SCCF:53:1,2008-07-10T22:00:00Z,26.6493,-81.8810,2.09,18.81,1111122 
SCCF RECON,ioos:station:SCCF:53:1,2008-07-10T23:00:00Z,26.6493,-81.8810,2.101,18.81,1111122 
SCCF RECON,ioos:station:SCCF:53:1,2008-07-11T00:00:00Z,26.6493,-81.8810,2.14,18.42,1111122 
SCCF RECON,ioos:station:SCCF:53:1,2008-07-11T01:00:00Z,26.6493,-81.8810,2.19,17.24,1111122 
SCCF RECON,ioos:station:SCCF:53:1,2008-07-11T02:00:00Z,26.6493,-81.8810,2.229,18.22,1111122 
SCCF RECON,ioos:station:SCCF:53:1,2008-07-11T03:00:00Z,26.6493,-81.8810,2.25,18.49,1111122 
SCCF RECON,ioos:station:SCCF:53:1,2008-07-11T04:00:00Z,26.6493,-81.8810,2.27,18.78,1111122 
SCCF RECON,ioos:station:SCCF:53:1,2008-07-11T05:00:00Z,26.6493,-81.8810,2.27,18.75,1111122 
SCCF RECON,ioos:station:SCCF:53:1,2008-07-11T06:00:00Z,26.6493,-81.8810,2.25,18.61,1111122 
SCCF RECON,ioos:station:SCCF:53:1,2008-07-11T07:00:00Z,26.6493,-81.8810,2.22,18.78,1111122 
SCCF RECON,ioos:station:SCCF:53:1,2008-07-11T08:00:00Z,26.6493,-81.8810,2.2,18.62,1111122 
SCCF RECON,ioos:station:SCCF:53:1,2008-07-11T09:00:00Z,26.6493,-81.8810,2.2,18.61,1111122 
SCCF RECON,ioos:station:SCCF:53:1,2008-07-11T10:00:00Z,26.6493,-81.8810,2.23,17.95,1111122 
SCCF RECON,ioos:station:SCCF:53:1,2008-07-11T11:00:00Z,26.6493,-81.8810,2.29,18.14,1111122 
SCCF RECON,ioos:station:SCCF:53:1,2008-07-11T12:00:00Z,26.6493,-81.8810,2.34,19.03,1111122 
SCCF RECON,ioos:station:SCCF:53:1,2008-07-11T13:00:00Z,26.6493,-81.8810,2.38,18.56,1111122 
SCCF RECON,ioos:station:SCCF:53:1,2008-07-11T14:00:00Z,26.6493,-81.8810,2.42,18.59,1111122 
SCCF RECON,ioos:station:SCCF:53:1,2008-07-11T15:00:00Z,26.6493,-81.8810,2.44,18.6,1111122 
SCCF RECON,ioos:station:SCCF:53:1,2008-07-11T16:00:00Z,26.6493,-81.8810,2.42,18.59,1111122 
SCCF RECON,ioos:station:SCCF:53:1,2008-07-11T17:00:00Z,26.6493,-81.8810,2.37,18.37,1111122 
SCCF RECON,ioos:station:SCCF:53:1,2008-07-11T18:00:00Z,26.6493,-81.8810,2.31,18.14,1111122 